EHI
0 0 0 0 0 0 0 0 0 0 0 0 0 0 1 2 1 1 2 3 4 5 4 5 8 9 7 6 6 4 2 1 0 0 0 0 0 0 0 0 0 1 1 1
0 0 0 0 0 0 0 0 0 0 0 0 0 0 1 2 2 2 2 3 4 5 6 8 10 9 7 6 6 4 3 2 1 0 0 0 0 0 0 0 0 1 2 2
0 0 0 0 0 0 0 0 0 0 0 0 0 0 0 1 2 2 2 2 3 5 7 10 11 9 8 7 6 4 3 3 2 1 1 1 1 0 0 0 0 1 2 3
0 0 0 0 0 0 0 0 0 0 0 0 0 0 0 1 2 2 1 1 2 4 6 10 11 9 8 8 7 6 4 3 3 3 2 2 2 1 0 0 0 0 1 2
0 0 0 0 0 0 0 0 0 0 0 0 0 0 0 0 1 2 2 1 1 3 5 8 9 8 7 7 8 7 5 4 4 4 3 3 3 1 1 0 0 0 0 1
0 0 0 0 0 0 0 0 0 0 0 0 0 0 0 0 0 1 2 2 2 3 3 6 7 7 7 7 8 8 7 6 6 6 4 3 3 3 2 1 0 0 0 0
0 0 0 0 0 0 0 0 0 0 0 0 0 0 0 0 0 0 1 2 3 3 3 5 6 7 7 7 8 9 9 8 8 8 6 4 3 3 3 2 1 1 0 0
0 0 0 0 0 0 0 0 0 0 0 0 0 0 0 0 0 0 0 1 2 3 4 4 5 7 8 8 8 9 9 9 10 10 9 7 4 3 3 3 3 2 1 1
0 0 0 0 0 0 0 0 0 0 0 0 0 0 0 0 0 0 0 0 1 3 4 3 3 5 8 8 7 7 8 8 9 11 10 8 6 4 3 3 3 3 3 2
0 0 0 0 0 0 0 0 0 0 0 0 0 0 0 0 0 0 0 1 2 3 2 1 1 4 7 8 7 7 6 7 8 10 10 9 6 4 3 4 3 3 3 3
0 0 0 0 0 0 0 0 0 0 0 0 0 0 0 0 0 1 1 1 2 2 1 0 0 2 5 7 8 8 7 7 8 9 9 9 8 5 4 4 4 3 3 3
0 0 0 0 0 0 0 0 0 0 0 0 0 0 0 0 1 1 1 1 1 1 0 0 0 1 4 7 9 9 8 8 8 9 8 9 8 6 4 4 3 3 3 3
0 0 0 0 0 0 0 0 0 0 0 0 0 0 0 0 1 1 1 0 1 1 1 1 0 1 3 6 9 9 9 9 9 9 7 7 7 7 5 4 3 3 3 4
0 0 0 0 0 0 0 0 0 0 0 0 0 0 0 0 0 0 1 1 2 3 2 2 1 0 2 6 9 9 9 10 11 10 8 7 7 7 7 6 6 5 5 6
0 0 0 0 0 0 0 0 0 0 0 0 0 0 0 0 0 1 2 4 5 4 3 2 1 1 3 6 9 9 8 10 12 11 9 7 6 6 7 8 8 8 8 8
0 0 0 0 0 0 0 0 0 1 1 0 0 0 0 1 2 3 4 6 7 5 3 1 1 2 4 6 7 7 7 10 12 12 10 8 7 7 8 8 8 8 7 7
0 0 0 0 0 0 0 0 0 1 1 0 0 0 1 3 5 5 6 7 6 4 1 1 2 3 4 4 4 5 7 9 12 13 12 10 9 9 8 8 7 5 4 5
0 0 0 0 0 0 0 0 0 1 1 0 0 0 1 3 4 5 5 5 4 2 1 1 2 3 4 4 4 5 7 9 13 15 15 13 12 11 10 8 6 3 2 3
0 0 0 0 0 0 0 0 0 0 0 0 0 0 1 1 2 3 3 3 2 2 1 0 1 3 5 6 6 6 7 9 13 16 15 13 13 13 10 8 7 5 4 4
0 0 0 0 0 0 0 0 0 0 0 0 0 0 0 0 1 1 2 2 3 3 2 1 1 2 4 5 7 7 7 8 9 11 11 11 12 13 11 9 8 7 6 6
0 0 0 0 0 0 0 0 0 0 0 0 0 0 0 0 1 2 4 5 5 5 5 4 2 1 2 4 7 8 7 5 5 6 7 7 10 13 13 11 9 8 6 6
0 0 0 0 0 0 0 0 0 0 0 0 0 1 1 2 3 6 7 7 7 7 8 7 5 2 2 4 6 6 4 3 4 4 5 6 8 11 12 11 10 9 7 6
0 0 0 0 0 0 0 0 0 0 0 0 0 1 4 6 7 8 7 7 8 8 8 8 7 6 5 4 5 4 3 3 4 5 6 6 7 8 10 10 11 11 9 6
0 0 0 0 0 0 1 1 0 0 0 0 1 3 7 9 8 7 6 8 8 7 6 6 6 6 5 3 3 3 2 3 4 4 5 6 7 6 7 9 11 11 10 7
0 0 0 0 0 0 1 1 0 0 1 1 3 5 7 8 7 5 5 7 7 6 5 5 5 4 4 3 2 1 1 1 2 3 4 5 6 5 6 7 7 8 7 6
0 0 0 0 0 0 1 1 0 1 2 3 4 6 7 7 6 4 4 5 6 6 6 5 4 4 4 3 1 0 0 0 0 1 3 4 6 7 6 5 4 4 3 3
Wind_Speed
2 4 3 6 6 4 3 2 2 4 2 1 2 4 3 4 5 5 6 6 7 7 6 5 6 5 5 4 4 4 3 2 2 1 1 1 0 0 0 0 1 1 1 2
3 3 7 5 4 3 3 2 2 3 1 1 2 4 4 5 7 7 7 8 9 7 5 6 6 5 6 6 5 5 4 3 3 2 2 1 1 1 1 0 0 1 1 2
5 6 3 4 3 2 2 4 4 3 2 2 1 5 3 3 4 5 6 7 8 10 10 8 7 7 6 7 7 6 5 4 3 3 2 2 2 2 1 1 0 1 1 1
4 4 3 2 3 4 4 5 4 3 2 2 1 3 6 3 3 6 7 6 8 9 9 8 8 8 8 8 7 6 5 4 4 4 3 4 3 2 2 1 1 1 1 1
5 3 3 4 6 6 5 2 3 2 2 1 1 1 8 1 4 8 8 8 8 9 10 10 10 10 9 7 7 6 5 4 4 4 4 4 3 2 1 0 0 0 1 1
5 3 4 5 2 5 5 6 5 5 4 1 3 2 7 4 6 5 6 7 7 8 8 8 8 7 6 6 6 6 5 4 4 5 4 5 4 3 2 1 1 1 0 1
3 3 3 3 2 1 5 6 4 5 4 5 2 2 10 7 6 6 6 6 6 6 7 8 8 8 8 8 8 7 6 6 5 5 5 5 5 4 4 3 2 2 1 1
2 6 4 4 7 7 5 9 8 5 5 5 2 5 8 5 4 3 3 4 5 5 6 8 9 9 8 8 8 8 8 7 6 6 6 5 4 3 3 3 3 3 2 2
6 6 4 3 3 9 6 4 6 7 2 1 5 6 8 2 2 1 2 4 5 6 6 6 7 7 8 8 8 9 8 7 6 6 5 5 5 4 4 3 3 2 2 2
8 3 4 2 4 3 5 8 6 6 5 2 5 4 5 5 3 2 3 4 5 5 5 5 5 6 6 6 6 6 7 7 6 6 5 5 5 5 4 3 3 2 2 2
5 4 3 2 3 5 4 4 5 5 5 6 3 7 6 7 6 6 6 6 6 6 6 5 4 5 5 5 6 6 6 5 5 5 5 4 4 4 4 3 4 3 2 2
4 6 2 4 4 2 4 7 8 6 4 4 4 9 5 5 5 5 6 4 4 5 5 5 4 4 4 5 5 6 5 5 5 5 4 4 3 3 4 4 4 3 3 2
5 6 3 5 5 3 2 3 4 6 6 5 4 8 4 1 1 2 4 3 3 3 4 4 4 5 5 6 6 6 6 6 5 4 4 4 3 3 4 4 3 3 3 2
6 5 7 8 7 4 2 2 4 6 5 5 7 7 5 3 2 3 3 2 2 3 3 4 3 4 4 5 5 6 6 5 5 5 5 5 5 4 4 3 3 3 3 3
5 4 3 3 3 3 3 3 5 5 7 8 8 7 8 6 5 5 3 2 1 2 3 4 4 4 4 4 4 4 4 4 5 5 5 5 4 4 3 2 3 2 3 3
4 4 2 1 1 2 2 3 4 4 4 4 3 6 5 3 2 1 2 3 3 3 3 3 3 4 4 5 5 4 3 3 3 4 4 3 3 3 3 2 2 2 2 2
2 5 4 2 2 1 3 4 4 3 3 5 6 7 2 1 2 3 3 3 3 3 3 2 3 4 4 4 4 4 4 3 3 3 3 3 3 3 3 3 2 2 3 2
6 5 4 3 2 4 8 2 4 3 2 3 3 3 3 4 3 1 2 2 2 2 2 2 2 2 2 2 2 3 3 4 3 3 4 3 3 3 3 3 2 2 2 3
4 8 5 4 3 4 5 1 2 3 3 2 2 1 1 2 3 2 0 2 3 3 2 2 2 2 2 3 3 3 2 3 4 4 4 4 4 4 3 3 3 2 2 2
5 5 6 4 4 6 6 3 2 3 3 3 1 2 1 4 2 3 2 1 1 1 1 1 1 1 2 2 3 4 3 3 4 4 4 4 4 4 4 3 3 2 2 3
3 4 3 4 3 6 5 5 1 4 6 3 1 2 3 4 4 3 2 2 2 2 2 2 2 2 1 2 3 3 3 4 4 3 2 2 3 4 3 3 2 2 2 2
4 4 3 4 3 6 3 2 4 5 3 1 1 1 2 2 1 2 3 2 2 2 2 2 2 2 2 2 3 2 3 3 2 2 2 2 2 3 3 3 2 2 3 2
3 5 5 6 6 4 2 2 2 2 1 2 2 1 1 2 2 1 2 2 2 2 2 2 2 2 2 1 2 2 1 1 2 2 2 2 2 2 2 3 3 2 2 2
2 1 3 1 3 3 3 2 1 1 1 2 1 1 3 2 2 2 2 2 2 1 2 2 3 2 1 1 1 1 1 2 3 2 2 2 2 2 1 1 2 2 2 2
3 1 1 1 3 3 3 2 2 1 2 2 2 2 3 4 2 2 1 2 2 1 1 2 2 1 0 1 1 1 2 2 3 2 1 1 2 2 1 1 1 2 2 3
4 6 5 6 6 4 5 3 2 1 1 0 2 3 3 3 2 1 1 1 1 1 1 2 1 1 0 1 0 1 2 2 3 2 1 1 1 1 1 1 1 1 1 1
Wind_Direction
91 89 196 212 198 188 173 175 248 266 256 143 235 255 240 198 193 199 198 199 204 208 201 186 186 183 179 176 171 175 173 181 148 133 135 133 179 238 334 198 180 158 145 144
52 245 225 191 178 161 162 187 255 296 358 152 259 275 249 203 205 204 202 204 202 197 191 189 188 187 187 185 182 180 184 182 175 167 158 154 150 182 194 309 48 158 161 165
192 232 184 160 170 173 213 194 214 215 347 28 7 315 285 246 213 213 210 206 200 196 194 194 192 195 191 191 191 191 190 185 180 161 123 98 68 40 40 18 329 265 185 174
226 243 184 175 210 169 246 218 184 165 100 309 47 296 290 263 245 229 221 209 206 205 198 194 192 194 198 200 194 189 185 181 174 157 151 151 156 181 215 213 233 276 214 202
235 204 172 204 219 172 207 144 124 125 123 7 357 215 284 306 256 244 228 213 208 200 195 196 197 199 199 194 189 187 179 180 174 166 167 163 172 195 197 160 207 287 296 256
238 229 197 204 199 157 139 73 57 51 69 330 253 188 279 246 232 244 224 210 206 198 193 195 196 190 190 186 184 180 176 186 181 178 176 177 181 179 167 185 210 249 287 279
300 286 235 167 116 78 113 97 39 2 10 259 261 213 253 255 241 228 223 211 203 195 188 187 186 187 190 186 185 181 180 193 190 186 188 191 193 186 190 201 208 208 225 241
198 278 241 187 175 177 171 142 156 190 220 273 299 240 258 270 265 238 197 184 180 185 188 190 190 189 189 188 185 182 186 195 191 193 198 195 194 196 206 205 202 206 216 226
179 249 279 224 181 142 142 174 162 132 151 285 283 287 301 310 346 85 146 157 183 193 191 191 188 186 186 186 187 187 189 193 195 197 194 194 198 200 205 204 203 209 217 217
159 223 287 301 85 50 144 144 108 120 145 242 291 281 257 269 258 241 206 201 205 199 197 199 192 189 192 187 183 181 184 194 196 194 196 200 201 202 201 192 204 211 216 211
137 165 298 20 157 176 117 103 108 113 146 155 238 269 233 222 213 213 221 215 207 203 199 197 197 194 188 178 174 176 180 184 185 191 197 203 202 200 195 201 211 214 216 209
139 126 229 267 267 201 158 158 146 149 195 169 176 263 280 231 216 208 224 223 212 205 201 195 190 184 180 179 178 176 175 184 193 188 181 192 198 198 202 211 214 206 209 211
136 115 85 342 339 5 100 136 137 124 119 151 173 261 315 337 225 214 219 223 211 197 191 189 183 181 184 182 180 182 185 190 188 176 178 182 186 197 211 215 208 199 202 208
113 115 159 190 213 210 205 169 151 130 147 191 216 245 289 288 256 248 239 224 204 199 188 186 190 190 188 187 188 190 194 186 173 174 186 193 199 203 209 209 204 201 196 197
102 135 183 215 225 195 202 211 185 181 184 186 225 226 248 239 226 224 220 211 195 194 192 194 194 195 192 192 195 195 192 179 172 176 191 205 209 201 193 197 200 194 193 202
78 136 143 256 259 218 236 243 207 205 188 204 218 251 253 233 178 208 221 202 207 220 210 198 191 194 200 198 198 192 186 176 165 176 193 200 196 190 184 192 194 188 189 193
109 125 126 220 290 61 264 234 199 195 207 180 203 236 249 167 178 211 224 219 217 219 212 201 201 205 207 199 188 190 187 164 162 178 189 189 187 187 193 194 188 202 204 196
142 121 129 140 108 208 239 241 168 168 239 223 223 236 204 194 186 198 202 196 221 220 216 216 209 202 203 180 174 179 158 150 165 189 196 195 182 185 184 177 195 218 213 203
152 137 125 130 168 253 291 265 158 172 270 254 220 267 289 129 88 16 277 193 205 203 197 210 216 203 183 170 164 150 152 156 179 201 209 204 187 182 179 186 203 211 200 201
68 99 119 133 155 215 237 279 273 121 281 298 206 210 173 122 124 253 243 205 185 139 135 129 130 129 151 167 150 145 165 176 208 216 218 213 190 180 184 193 202 192 191 193
53 60 118 154 190 251 264 295 77 155 240 280 231 209 176 184 204 206 160 160 146 109 90 101 116 118 131 138 144 156 168 195 213 215 203 196 186 180 181 171 168 163 161 147
160 143 164 147 173 243 304 71 158 219 261 268 237 210 201 195 104 121 135 130 118 97 88 99 107 92 78 109 134 157 196 207 181 163 163 165 162 170 166 156 153 140 138 140
187 184 179 184 207 240 269 223 235 192 213 245 224 242 161 153 149 137 138 135 147 142 121 99 103 85 62 86 128 158 230 143 130 129 145 156 139 134 143 150 157 148 147 157
270 137 129 238 271 282 289 288 305 285 263 273 239 133 126 140 152 147 154 151 148 132 117 99 96 88 61 63 94 114 96 107 117 118 136 143 128 118 118 139 152 152 160 170
222 150 119 251 279 316 318 308 306 332 12 37 48 85 117 120 128 147 165 181 173 142 122 123 121 135 156 92 87 78 95 117 114 114 152 158 137 140 120 115 164 170 187 186
205 181 174 216 221 199 248 266 286 324 325 94 83 67 76 114 128 118 151 186 154 141 118 115 129 156 186 117 110 115 135 141 132 137 180 185 165 160 146 125 18 21 198 189